Weather History for Springfield, MO

Change the Weather History Date:

Saturday, January 5, 2013

  Actual Average Record
Temperature  
Mean Temperature 34 °F 32 °F  
Max Temperature 42 °F 42 °F 69 °F (1956)
Min Temperature 26 °F 23 °F -12 °F (1940)
Degree Days  
Heating Degree Days 31 33  
Month to date heating degree days 178 162  
Since 1 July heating degree days 1825 1972  
Cooling Degree Days 0 0  
Month to date cooling degree days 0 0  
Year to date cooling degree days 0 0  
Moisture  
Dew Point 28 °F    
Average Humidity 73    
Maximum Humidity 85    
Minimum Humidity 60    
Precipitation  
Precipitation T in 0.09 in 2.31 in (2005)
Month to date precipitation T 0.44  
Year to date precipitation T 0.44  
Snow  
Snow T in - - ()
Month to date snowfall T  
Since 1 July snowfall 1.3  
Snow Depth 0.00 in    
Sea Level Pressure  
Sea Level Pressure 30.24 in    
Wind  
Wind Speed 9 mph (SSW)    
Max Wind Speed 18 mph    
Max Gust Speed 23 mph    
Visibility 10 miles    
Events      
T = Trace of Precipitation, MM = Missing Value Source: NWS Daily Summary

Daily Weather History Graph

Daily Weather History Graph

Search for Another Location

Airport:

Trip Planner

Search our weather history database for the weather conditions in past years. The results will help you decide how hot, cold, wet, or windy it might be!

Date:

Astronomy

Jan. 05, 2013 Rise Set
Actual Time 7:27 AM CST 5:10 PM CST
Civil Twilight 6:59 AM CST 5:39 PM CST
Nautical Twilight 6:26 AM CST 6:11 PM CST
Astronomical Twilight 5:55 AM CST 6:43 PM CST
Moon 12:39 AM CST (1/5) 11:56 AM CST (1/5)
Length of Visible Light 10h 40m
Length of Day
9h 42m
Last Quarter, 44% of the Moon is Illuminated
Jan 5
Last Quarter
Jan 11
New
Jan 18
First Quarter
Jan 26
Full
Feb 3
Last Quarter

Hourly Weather History & Observations

Time (CST) Temp. Windchill Dew Point Humidity Pressure Visibility Wind Dir Wind Speed Gust Speed Precip Events Conditions
12:52 AM 28.0 °F 24.2 °F 21.0 °F 75% 30.31 in 10.0 mi South 3.5 mph - N/A   Clear
1:52 AM 26.1 °F 20.5 °F 19.9 °F 78% 30.30 in 10.0 mi South 4.6 mph - N/A   Clear
2:52 AM 27.0 °F 18.0 °F 21.0 °F 78% 30.30 in 10.0 mi South 9.2 mph - N/A   Clear
3:52 AM 28.0 °F 21.7 °F 23.0 °F 81% 30.30 in 10.0 mi South 5.8 mph - N/A   Overcast
4:52 AM 30.0 °F 24.1 °F 24.1 °F 79% 30.30 in 10.0 mi SSW 5.8 mph - N/A   Overcast
5:52 AM 30.9 °F 25.2 °F 24.1 °F 76% 30.31 in 10.0 mi SW 5.8 mph - N/A   Overcast
6:52 AM 32.0 °F 24.8 °F 25.0 °F 75% 30.31 in 10.0 mi SSE 8.1 mph - N/A   Overcast
7:52 AM 32.0 °F 25.6 °F 25.0 °F 75% 30.30 in 10.0 mi SSE 6.9 mph - N/A   Overcast
8:52 AM 35.1 °F 27.4 °F 26.1 °F 70% 30.30 in 10.0 mi SSW 10.4 mph - N/A   Overcast
9:52 AM 37.0 °F 28.9 °F 30.0 °F 76% 30.29 in 10.0 mi SSW 12.7 mph - N/A   Overcast
10:52 AM 37.9 °F 30.5 °F 30.9 °F 76% 30.29 in 10.0 mi SSW 11.5 mph - N/A   Overcast
11:52 AM 39.0 °F 32.3 °F 28.9 °F 67% 30.24 in 10.0 mi SSW 10.4 mph - N/A   Overcast
12:15 PM 39.9 °F 32.9 °F 28.9 °F 65% 30.19 in 10.0 mi South 11.5 mph - N/A   Overcast
12:52 PM 41.0 °F 33.5 °F 28.9 °F 62% 30.20 in 10.0 mi SSW 13.8 mph - N/A   Overcast
1:16 PM 41.0 °F 33.5 °F 28.4 °F 61% 30.16 in 10.0 mi SSW 13.8 mph - N/A   Overcast
1:52 PM 41.0 °F 34.7 °F 28.9 °F 62% 30.18 in 10.0 mi SSW 10.4 mph - N/A   Overcast
2:27 PM 41.0 °F 33.5 °F 30.0 °F 65% 30.14 in 10.0 mi SSW 13.8 mph - N/A   Overcast
2:52 PM 41.0 °F 34.3 °F 30.0 °F 65% 30.18 in 10.0 mi SW 11.5 mph - N/A   Overcast
3:52 PM 42.1 °F 35.2 °F 32.0 °F 67% 30.17 in 10.0 mi SSW 12.7 mph - N/A   Overcast
4:52 PM 41.0 °F 34.7 °F 32.0 °F 70% 30.17 in 10.0 mi SSW 10.4 mph - N/A   Overcast
5:52 PM 39.9 °F 34.5 °F 32.0 °F 73% 30.20 in 10.0 mi SW 8.1 mph - N/A   Overcast
6:52 PM 37.9 °F 32.7 °F 30.9 °F 76% 30.21 in 10.0 mi SSW 6.9 mph - N/A   Overcast
7:52 PM 34.0 °F 27.2 °F 28.9 °F 82% 30.21 in 10.0 mi SSW 8.1 mph - N/A   Partly Cloudy
8:52 PM 32.0 °F 25.6 °F 28.0 °F 85% 30.21 in 10.0 mi SW 6.9 mph - N/A   Clear
9:52 PM 33.1 °F 24.9 °F 28.9 °F 85% 30.21 in 10.0 mi SSW 10.4 mph - N/A   Clear
10:52 PM 32.0 °F 23.6 °F 28.9 °F 88% 30.21 in 10.0 mi SSW 10.4 mph - N/A   Clear
11:52 PM 32.0 °F 24.2 °F 28.0 °F 85% 30.21 in 10.0 mi SW 9.2 mph - N/A   Clear